Вернуться в каталог

STARLINK-33535

АктивенСвязьVLEO
NORAD 63417·PAYLOAD·🇺🇸 United States

Запущен Mar 31, 2025 с Cape Canaveral Space Force Station

Loading…

Ближайшие Пролёты (ближайшие 24 часа)

TLE

СвежийSource: CelesTrak SupGP

Эпоха: Sep 15, 2026, 02:41 UTC

1 63417C 25065U   26258.11229167  .00057209  00000+0  20723-2 0  2587
2 63417  43.0023 117.2220 0001464 278.8799 309.9165 15.27547663    15

Отслеживайте STARLINK-33535 в реальном времени с AllMySat

Download on the App Store